Location: Unspecified
(44.0704°N, 88.6889°W)
Time: 00:57:18
(UTC+02:00)

Transit 2A - Pass Details

Date: 18 June 2019
Orbit: 595 x 964 km, 66.7° (Epoch: 22 July)

Event Time Altitude Azimuth Distance (km) Brightness Sun altitude
Rises 07:57:01 0° 174° (S) 3,591 - -22.5°
Reaches altitude 10° 07:59:54 10° 163° (SSE) 2,675 - -22.5°
Exits shadow 08:03:48 26° 127° (SE) 1,815 7.6 -22.5°
Maximum altitude 08:05:05 27° 108° (ESE) 1,743 7.7 -22.5°
Drops below altitude 10° 08:10:17 10° 53° (NE) 2,688 9.3 -22.4°
Sets 08:13:10 0° 42° (NE) 3,612 10.3 -22.4°
